Location: Cabo di Oristano
(39.8500°N, 8.4333°E)
Time: 16:43:01
(UTC+00:00)

Cosmos 1741 Rocket - Pass Details

Date: 31 January 2023
Orbit: 761 x 781 km, 74.0° (Epoch: 31 March)

Event Time Altitude Azimuth Distance (km) Brightness Sun altitude
Rises 05:39:35 0° 336° (NNW) 3,270 6.9 -11.1°
Reaches altitude 10° 05:42:01 10° 333° (NNW) 2,336 6.1 -10.6°
Maximum altitude 05:47:12 57° 256° (WSW) 915 4.1 -9.7°
Drops below altitude 10° 05:52:19 10° 178° (S) 2,309 6.7 -8.7°
Sets 05:54:43 0° 175° (S) 3,228 7.5 -8.3°
